Time,TemperatureF,DewpointF,PressureIn,WindDirection,WindDirectionDegrees,WindSpeedMPH,WindSpeedGustMPH,Humidity,HourlyPrecipIn,Conditions,Clouds,dailyrainin,SoftwareType,DateUTC
2013-01-26 00:01:00,40.2,39.0,30.14,ENE,71,0.0,-999.0,94,-99.99,,,0.00,weatherlink.com 1.10,2013-01-26 05:01:00,
2013-01-26 00:16:00,40.0,39.0,30.14,ENE,71,0.0,-999.0,94,-99.99,,,0.00,weatherlink.com 1.10,2013-01-26 05:16:00,
2013-01-26 00:32:00,39.6,38.0,30.13,ENE,71,0.0,-999.0,94,-99.99,,,0.00,weatherlink.com 1.10,2013-01-26 05:32:00,
2013-01-26 00:47:00,39.3,38.0,30.14,ENE,71,0.0,-999.0,94,-99.99,,,0.00,weatherlink.com 1.10,2013-01-26 05:47:00,
2013-01-26 01:02:00,39.3,38.0,30.14,ENE,71,0.0,-999.0,94,-99.99,,,0.00,weatherlink.com 1.10,2013-01-26 06:02:00,
2013-01-26 01:17:00,39.4,38.0,30.13,ENE,71,0.0,-999.0,94,-99.99,,,0.00,weatherlink.com 1.10,2013-01-26 06:17:00,
2013-01-26 01:32:00,39.2,38.0,30.12,ENE,71,0.0,-999.0,94,-99.99,,,0.00,weatherlink.com 1.10,2013-01-26 06:32:00,
2013-01-26 01:47:00,38.7,37.0,30.12,ENE,71,0.0,-999.0,94,-99.99,,,0.00,weatherlink.com 1.10,2013-01-26 06:47:00,
2013-01-26 02:02:00,38.2,37.0,30.13,ENE,71,0.0,-999.0,94,-99.99,,,0.00,weatherlink.com 1.10,2013-01-26 07:02:00,
2013-01-26 02:17:00,37.8,36.0,30.13,ENE,71,0.0,-999.0,94,-99.99,,,0.00,weatherlink.com 1.10,2013-01-26 07:17:00,
2013-01-26 02:32:00,37.5,36.0,30.13,ENE,71,0.0,-999.0,94,-99.99,,,0.00,weatherlink.com 1.10,2013-01-26 07:32:00,
2013-01-26 02:47:00,37.2,36.0,30.13,ENE,71,0.0,-999.0,94,-99.99,,,0.00,weatherlink.com 1.10,2013-01-26 07:47:00,
2013-01-26 03:02:00,36.9,35.0,30.13,ENE,71,0.0,-999.0,94,-99.99,,,0.00,weatherlink.com 1.10,2013-01-26 08:02:00,
2013-01-26 03:17:00,36.5,35.0,30.13,ENE,71,0.0,-999.0,94,-99.99,,,0.00,weatherlink.com 1.10,2013-01-26 08:17:00,
2013-01-26 03:32:00,36.4,35.0,30.14,ENE,71,0.0,-999.0,94,-99.99,,,0.00,weatherlink.com 1.10,2013-01-26 08:32:00,
2013-01-26 03:47:00,36.2,35.0,30.14,East,90,0.0,-999.0,94,-99.99,,,0.00,weatherlink.com 1.10,2013-01-26 08:47:00,
2013-01-26 04:02:00,36.1,35.0,30.15,East,90,0.0,-999.0,94,-99.99,,,0.00,weatherlink.com 1.10,2013-01-26 09:02:00,
2013-01-26 04:17:00,35.8,34.0,30.14,East,90,0.0,-999.0,94,-99.99,,,0.00,weatherlink.com 1.10,2013-01-26 09:17:00,
2013-01-26 04:32:00,35.5,34.0,30.14,East,90,0.0,-999.0,94,-99.99,,,0.00,weatherlink.com 1.10,2013-01-26 09:32:00,
2013-01-26 04:47:00,35.3,34.0,30.14,East,90,0.0,-999.0,94,-99.99,,,0.00,weatherlink.com 1.10,2013-01-26 09:47:00,
2013-01-26 05:02:00,35.2,34.0,30.14,East,90,0.0,-999.0,94,-99.99,,,0.00,weatherlink.com 1.10,2013-01-26 10:02:00,
2013-01-26 05:17:00,34.4,33.0,30.14,East,90,0.0,-999.0,94,-99.99,,,0.00,weatherlink.com 1.10,2013-01-26 10:17:00,
2013-01-26 05:32:00,34.1,33.0,30.14,East,90,0.0,-999.0,94,-99.99,,,0.00,weatherlink.com 1.10,2013-01-26 10:32:00,
2013-01-26 05:47:00,34.0,33.0,30.14,East,90,0.0,-999.0,94,-99.99,,,0.00,weatherlink.com 1.10,2013-01-26 10:47:00,
2013-01-26 06:02:00,33.9,32.0,30.15,East,91,0.0,-999.0,94,-99.99,,,0.00,weatherlink.com 1.10,2013-01-26 11:02:00,
2013-01-26 06:17:00,33.7,32.0,30.15,SSE,153,0.0,-999.0,94,-99.99,,,0.00,weatherlink.com 1.10,2013-01-26 11:17:00,
2013-01-26 06:32:00,33.3,32.0,30.15,East,87,0.0,-999.0,94,-99.99,,,0.00,weatherlink.com 1.10,2013-01-26 11:32:00,
2013-01-26 06:47:00,33.2,32.0,30.16,East,88,0.0,-999.0,94,-99.99,,,0.00,weatherlink.com 1.10,2013-01-26 11:47:00,
2013-01-26 07:02:00,32.9,31.0,30.16,East,88,0.0,-999.0,94,-99.99,,,0.00,weatherlink.com 1.10,2013-01-26 12:02:00,
2013-01-26 07:17:00,32.8,31.0,30.17,East,92,0.0,-999.0,94,-99.99,,,0.00,weatherlink.com 1.10,2013-01-26 12:17:00,
2013-01-26 07:32:00,32.8,31.0,30.17,East,96,0.0,-999.0,94,-99.99,,,0.00,weatherlink.com 1.10,2013-01-26 12:32:00,
2013-01-26 07:47:00,32.8,31.0,30.17,East,96,0.0,-999.0,94,-99.99,,,0.00,weatherlink.com 1.10,2013-01-26 12:47:00,
2013-01-26 08:02:00,32.8,31.0,30.18,ENE,69,0.0,-999.0,94,-99.99,,,0.00,weatherlink.com 1.10,2013-01-26 13:02:00,
2013-01-26 08:17:00,32.8,31.0,30.18,ESE,121,0.0,-999.0,94,-99.99,,,0.00,weatherlink.com 1.10,2013-01-26 13:17:00,
2013-01-26 08:32:00,32.8,31.0,30.19,ESE,121,0.0,-999.0,94,-99.99,,,0.00,weatherlink.com 1.10,2013-01-26 13:32:00,
2013-01-26 08:47:00,32.8,31.0,30.20,ESE,121,0.0,-999.0,94,-99.99,,,0.00,weatherlink.com 1.10,2013-01-26 13:47:00,
2013-01-26 09:02:00,33.0,32.0,30.21,ESE,121,0.0,-999.0,94,-99.99,,,0.00,weatherlink.com 1.10,2013-01-26 14:02:00,
2013-01-26 09:17:00,33.5,32.0,30.21,ESE,121,0.0,-999.0,94,-99.99,,,0.00,weatherlink.com 1.10,2013-01-26 14:17:00,
2013-01-26 09:32:00,33.9,32.0,30.21,ESE,121,0.0,-999.0,94,-99.99,,,0.00,weatherlink.com 1.10,2013-01-26 14:32:00,
2013-01-26 09:47:00,34.4,33.0,30.22,ESE,123,0.0,-999.0,94,-99.99,,,0.00,weatherlink.com 1.10,2013-01-26 14:47:00,
2013-01-26 10:02:00,34.5,33.0,30.23,SE,128,0.0,-999.0,94,-99.99,,,0.00,weatherlink.com 1.10,2013-01-26 15:02:00,
2013-01-26 10:17:00,34.7,33.0,30.23,SE,132,0.0,-999.0,94,-99.99,,,0.00,weatherlink.com 1.10,2013-01-26 15:17:00,
2013-01-26 10:32:00,35.5,34.0,30.23,SE,132,0.0,-999.0,94,-99.99,,,0.00,weatherlink.com 1.10,2013-01-26 15:32:00,
2013-01-26 10:47:00,36.1,34.0,30.23,SE,132,0.0,-999.0,93,-99.99,,,0.00,weatherlink.com 1.10,2013-01-26 15:47:00,
2013-01-26 11:02:00,36.8,35.0,30.24,SSE,150,0.0,-999.0,93,-99.99,,,0.00,weatherlink.com 1.10,2013-01-26 16:02:00,
2013-01-26 11:17:00,37.2,35.0,30.24,SSE,153,0.0,-999.0,92,-99.99,,,0.00,weatherlink.com 1.10,2013-01-26 16:17:00,
2013-01-26 11:32:00,38.5,36.0,30.24,SSE,161,0.0,-999.0,91,-99.99,,,0.00,weatherlink.com 1.10,2013-01-26 16:32:00,
2013-01-26 11:48:00,40.1,37.0,30.23,SE,143,0.0,-999.0,89,-99.99,,,0.00,weatherlink.com 1.10,2013-01-26 16:48:00,
2013-01-26 12:03:00,41.4,38.0,30.24,South,169,0.0,-999.0,87,-99.99,,,0.00,weatherlink.com 1.10,2013-01-26 17:03:00,
2013-01-26 12:18:00,42.4,38.0,30.24,SSE,167,0.0,-999.0,84,-99.99,,,0.00,weatherlink.com 1.10,2013-01-26 17:18:00,
2013-01-26 12:33:00,42.8,38.0,30.24,SSE,167,0.0,-999.0,83,-99.99,,,0.00,weatherlink.com 1.10,2013-01-26 17:33:00,
2013-01-26 12:48:00,42.9,37.0,30.24,SSE,167,0.0,-999.0,81,-99.99,,,0.00,weatherlink.com 1.10,2013-01-26 17:48:00,
2013-01-26 13:03:00,43.3,38.0,30.23,SSE,168,2.0,-999.0,82,-99.99,,,0.00,weatherlink.com 1.10,2013-01-26 18:03:00,
2013-01-26 13:18:00,44.3,39.0,30.22,South,175,4.0,-999.0,80,-99.99,,,0.00,weatherlink.com 1.10,2013-01-26 18:18:00,
2013-01-26 13:33:00,45.0,38.0,30.22,South,175,0.0,-999.0,77,-99.99,,,0.00,weatherlink.com 1.10,2013-01-26 18:33:00,
2013-01-26 13:48:00,45.5,38.0,30.21,SSE,167,0.0,-999.0,76,-99.99,,,0.00,weatherlink.com 1.10,2013-01-26 18:48:00,
2013-01-26 14:03:00,45.9,38.0,30.20,SSE,160,0.0,-999.0,73,-99.99,,,0.00,weatherlink.com 1.10,2013-01-26 19:03:00,
2013-01-26 14:18:00,46.8,37.0,30.21,South,173,0.0,-999.0,70,-99.99,,,0.00,weatherlink.com 1.10,2013-01-26 19:18:00,
2013-01-26 14:33:00,46.9,37.0,30.21,SSE,167,2.0,-999.0,68,-99.99,,,0.00,weatherlink.com 1.10,2013-01-26 19:33:00,
2013-01-26 14:48:00,47.8,37.0,30.21,South,189,0.0,-999.0,67,-99.99,,,0.00,weatherlink.com 1.10,2013-01-26 19:48:00,
2013-01-26 15:03:00,48.7,37.0,30.21,South,177,0.0,-999.0,64,-99.99,,,0.00,weatherlink.com 1.10,2013-01-26 20:03:00,
2013-01-26 15:18:00,49.0,36.0,30.20,South,172,0.0,-999.0,62,-99.99,,,0.00,weatherlink.com 1.10,2013-01-26 20:18:00,
2013-01-26 15:33:00,49.3,36.0,30.21,SSE,163,0.0,-999.0,61,-99.99,,,0.00,weatherlink.com 1.10,2013-01-26 20:33:00,
2013-01-26 15:48:00,49.6,36.0,30.21,East,84,0.0,-999.0,61,-99.99,,,0.00,weatherlink.com 1.10,2013-01-26 20:48:00,
2013-01-26 16:03:00,49.5,37.0,30.22,West,267,0.0,-999.0,62,-99.99,,,0.00,weatherlink.com 1.10,2013-01-26 21:03:00,
2013-01-26 16:18:00,49.6,36.0,30.21,SSE,161,0.0,-999.0,59,-99.99,,,0.00,weatherlink.com 1.10,2013-01-26 21:18:00,
2013-01-26 16:33:00,49.2,35.0,30.21,SSE,167,0.0,-999.0,59,-99.99,,,0.00,weatherlink.com 1.10,2013-01-26 21:33:00,
2013-01-26 16:48:00,49.4,35.0,30.21,South,172,0.0,-999.0,58,-99.99,,,0.00,weatherlink.com 1.10,2013-01-26 21:48:00,
2013-01-26 17:03:00,48.4,34.0,30.21,South,169,0.0,-999.0,59,-99.99,,,0.00,weatherlink.com 1.10,2013-01-26 22:03:00,
2013-01-26 17:18:00,47.5,34.0,30.21,South,171,0.0,-999.0,61,-99.99,,,0.00,weatherlink.com 1.10,2013-01-26 22:18:00,
2013-01-26 17:33:00,46.5,33.0,30.22,South,171,0.0,-999.0,60,-99.99,,,0.00,weatherlink.com 1.10,2013-01-26 22:33:00,
2013-01-26 17:48:00,45.6,34.0,30.22,South,171,0.0,-999.0,63,-99.99,,,0.00,weatherlink.com 1.10,2013-01-26 22:48:00,
2013-01-26 18:03:00,44.9,33.0,30.22,SSE,166,0.0,-999.0,64,-99.99,,,0.00,weatherlink.com 1.10,2013-01-26 23:03:00,
2013-01-26 18:18:00,44.0,33.0,30.23,SSE,166,0.0,-999.0,66,-99.99,,,0.00,weatherlink.com 1.10,2013-01-26 23:18:00,
2013-01-26 18:33:00,43.1,32.0,30.23,SSE,166,0.0,-999.0,66,-99.99,,,0.00,weatherlink.com 1.10,2013-01-26 23:33:00,
2013-01-26 18:48:00,41.9,32.0,30.23,SSE,165,0.0,-999.0,69,-99.99,,,0.00,weatherlink.com 1.10,2013-01-26 23:48:00,
2013-01-26 19:03:00,39.8,33.0,30.24,SSE,165,0.0,-999.0,76,-99.99,,,0.00,weatherlink.com 1.10,2013-01-27 00:03:00,
2013-01-26 19:18:00,38.9,32.0,30.24,SSE,165,0.0,-999.0,77,-99.99,,,0.00,weatherlink.com 1.10,2013-01-27 00:18:00,
2013-01-26 19:33:00,38.0,32.0,30.24,SSE,165,0.0,-999.0,79,-99.99,,,0.00,weatherlink.com 1.10,2013-01-27 00:33:00,
2013-01-26 19:48:00,37.3,32.0,30.24,SSE,165,0.0,-999.0,80,-99.99,,,0.00,weatherlink.com 1.10,2013-01-27 00:48:00,
2013-01-26 20:03:00,36.9,32.0,30.24,SSE,165,0.0,-999.0,81,-99.99,,,0.00,weatherlink.com 1.10,2013-01-27 01:03:00,
2013-01-26 20:18:00,36.1,31.0,30.24,SSE,165,0.0,-999.0,82,-99.99,,,0.00,weatherlink.com 1.10,2013-01-27 01:18:00,
2013-01-26 20:33:00,35.3,31.0,30.25,SSE,165,0.0,-999.0,83,-99.99,,,0.00,weatherlink.com 1.10,2013-01-27 01:33:00,
2013-01-26 20:48:00,35.9,31.0,30.25,SSE,165,0.0,-999.0,81,-99.99,,,0.00,weatherlink.com 1.10,2013-01-27 01:48:00,
2013-01-26 21:03:00,35.5,31.0,30.24,SSE,164,0.0,-999.0,82,-99.99,,,0.00,weatherlink.com 1.10,2013-01-27 02:03:00,
2013-01-26 21:18:00,35.2,30.0,30.24,East,82,0.0,-999.0,80,-99.99,,,0.00,weatherlink.com 1.10,2013-01-27 02:18:00,
2013-01-26 21:34:00,35.8,29.0,30.25,ENE,78,0.0,-999.0,75,-99.99,,,0.00,weatherlink.com 1.10,2013-01-27 02:34:00,
2013-01-26 21:49:00,36.0,28.0,30.25,ENE,78,0.0,-999.0,73,-99.99,,,0.00,weatherlink.com 1.10,2013-01-27 02:49:00,
2013-01-26 22:04:00,36.6,26.0,30.25,ENE,78,0.0,-999.0,66,-99.99,,,0.00,weatherlink.com 1.10,2013-01-27 03:04:00,
2013-01-26 22:19:00,36.8,26.0,30.25,North,360,0.0,-999.0,65,-99.99,,,0.00,weatherlink.com 1.10,2013-01-27 03:19:00,
2013-01-26 22:34:00,36.9,25.0,30.25,North,360,0.0,-999.0,62,-99.99,,,0.00,weatherlink.com 1.10,2013-01-27 03:34:00,
2013-01-26 22:49:00,35.8,27.0,30.25,North,360,0.0,-999.0,70,-99.99,,,0.00,weatherlink.com 1.10,2013-01-27 03:49:00,
2013-01-26 23:04:00,35.6,25.0,30.25,North,360,0.0,-999.0,66,-99.99,,,0.00,weatherlink.com 1.10,2013-01-27 04:04:00,
2013-01-26 23:19:00,36.3,26.0,30.25,North,360,0.0,-999.0,66,-99.99,,,0.00,weatherlink.com 1.10,2013-01-27 04:19:00,
2013-01-26 23:34:00,36.2,24.0,30.25,North,360,0.0,-999.0,61,-99.99,,,0.00,weatherlink.com 1.10,2013-01-27 04:34:00,
2013-01-26 23:49:00,36.9,24.0,30.25,North,360,0.0,-999.0,59,-99.99,,,0.00,weatherlink.com 1.10,2013-01-27 04:49:00,